Het weer op Woensdrecht:2016/02/09 00:55 EHWO 090055Z AUTO 22015KT 200V260 9999 SCT034 BKN038 OVC043 08/02 Q0996 BLU
Het weer op Amsterdam:2016/02/09 00:55 EHAM 090055Z 24027G37KT 210V270 9999 SCT033 BKN043 08/03 Q0992 NOSIG

Menu promotie
· De club
· Motor(zweefvliegen) bij de ACV
· De vloot
· Kennismaken met de ACV


Buien Radar


Inloggen voor leden
WelkomAnonymous!


Lid nummer    
Wachtwoord 
Code: Code
Type Code in
[Wachtwoord vergeten?]


Picasa foto link
ACV externe fotolink


 
Sorry, deze module is niet actief (acv_addon_4)

[ Ga terug ]
copyright (c) ACV 2006 - 2016

All logos and trademarks in this site are property of their respective owner. The comments are property of their posters, all the rest 2005 by me.
PHP-Nuke Copyright © 2005 by Francisco Burzi. This is free software, and you may redistribute it under the GPL. PHP-Nuke comes with absolutely no warranty, for details, see the license.
Pagina Rendering: 0.08 Seconden